TimeEST,TemperatureF,Dew PointF,Humidity,Sea Level PressureIn,VisibilityMPH,Wind Direction,Wind SpeedMPH,Gust SpeedMPH,PrecipitationIn,Events,Conditions,WindDirDegrees,DateUTC
12:51 AM,36.0,21.9,57,30.25,10.0,SSW,11.5,-,N/A,,Mostly Cloudy,200,2012-12-14 05:51:00
1:51 AM,35.6,21.2,56,30.24,10.0,SSW,9.2,-,N/A,,Mostly Cloudy,200,2012-12-14 06:51:00
2:51 AM,36.0,23.0,59,30.27,10.0,SSW,9.2,-,N/A,,Mostly Cloudy,200,2012-12-14 07:51:00
3:51 AM,35.1,24.1,64,30.27,10.0,SSW,9.2,-,N/A,,Mostly Cloudy,210,2012-12-14 08:51:00
4:51 AM,35.1,24.1,64,30.26,10.0,SW,9.2,-,N/A,,Mostly Cloudy,220,2012-12-14 09:51:00
5:51 AM,34.0,24.1,67,30.28,10.0,SSW,5.8,-,N/A,,Mostly Cloudy,210,2012-12-14 10:51:00
6:51 AM,33.1,24.1,70,30.28,10.0,SSW,6.9,-,N/A,,Scattered Clouds,200,2012-12-14 11:51:00
7:51 AM,32.0,24.1,73,30.28,10.0,SSW,4.6,-,N/A,,Scattered Clouds,210,2012-12-14 12:51:00
8:51 AM,35.1,25.0,67,30.29,10.0,SW,4.6,-,N/A,,Scattered Clouds,220,2012-12-14 13:51:00
9:51 AM,37.4,26.6,65,30.28,10.0,WSW,8.1,-,N/A,,Mostly Cloudy,240,2012-12-14 14:51:00
10:51 AM,42.1,27.0,55,30.30,10.0,WSW,5.8,-,N/A,,Mostly Cloudy,250,2012-12-14 15:51:00
11:51 AM,43.0,27.0,53,30.30,10.0,SSW,4.6,-,N/A,,Mostly Cloudy,210,2012-12-14 16:51:00
12:51 PM,45.0,28.0,52,30.28,10.0,West,4.6,-,N/A,,Mostly Cloudy,260,2012-12-14 17:51:00
1:51 PM,46.0,28.9,51,30.26,10.0,South,3.5,-,N/A,,Mostly Cloudy,190,2012-12-14 18:51:00
2:51 PM,46.9,28.0,48,30.24,10.0,Calm,Calm,-,N/A,,Mostly Cloudy,0,2012-12-14 19:51:00
3:51 PM,46.9,28.0,48,30.24,10.0,Calm,Calm,-,N/A,,Scattered Clouds,0,2012-12-14 20:51:00
4:51 PM,42.1,30.0,62,30.25,10.0,NNE,4.6,-,N/A,,Partly Cloudy,20,2012-12-14 21:51:00
5:51 PM,39.0,30.9,73,30.25,10.0,ENE,5.8,-,N/A,,Partly Cloudy,70,2012-12-14 22:51:00
6:51 PM,37.0,30.0,76,30.25,10.0,Calm,Calm,-,N/A,,Partly Cloudy,0,2012-12-14 23:51:00
7:51 PM,36.0,30.0,79,30.26,10.0,Calm,Calm,-,N/A,,Partly Cloudy,0,2012-12-15 00:51:00
8:51 PM,32.0,28.0,85,30.27,9.0,West,3.5,-,N/A,,Clear,260,2012-12-15 01:51:00
9:51 PM,36.0,30.0,79,30.27,10.0,Calm,Calm,-,N/A,,Partly Cloudy,0,2012-12-15 02:51:00
10:51 PM,34.0,28.0,79,30.24,10.0,Calm,Calm,-,N/A,,Clear,0,2012-12-15 03:51:00
11:51 PM,34.0,28.0,79,30.23,10.0,Calm,Calm,-,N/A,,Overcast,0,2012-12-15 04:51:00